Regional Weather Roundup
Issued by NWS

Home | Current Version | Previous Version | Text Only | Print | Product List | Glossary Off
Versions: 1 2 3 4 5 6 7 8 9 10 11 12 13 14 15 16 17 18 19 20 21 22 23 24 25 26 27 28 29 30 31 32 33 34 35 36 37 38 39 40 41 42 43 44 45 46 47 48 49 50

000
ASUS45 KBOU 291007
RWRCO

WEATHER ROUNDUP FOR COLORADO
NATIONAL WEATHER SERVICE DENVER/BOULDER CO
300 AM MST THU JAN 29 2015

NOTE: "FAIR" INDICATES FEW OR NO CLOUDS BELOW 12000 FEET WITH NO
SIGNIFICANT WEATHER AND/OR OBSTRUCTIONS TO VISIBILITY.

COZ001>005-013-030-031-291100-
...NORTHWEST COLORADO...

CITY           SKY/WX    TMP DP  RH WIND       PRES   REMARKS
CRAIG          CLOUDY    33  30  88 CALM      30.38R
HAYDEN         CLOUDY    32  28  86 CALM      30.37R
MEEKER         MOCLDY    23  20  88 NE3       30.38R
MOUNT WERNER   NOT AVBL
STEAMBOAT SPGS CLOUDY    32  28  86 SE3       30.37R
WALDEN         CLOUDY    30  27  86 SE3       30.36R
$$

COZ006>008-011-291100-
...WEST CENTRAL VALLEYS...

CITY           SKY/WX    TMP DP  RH WIND       PRES   REMARKS
GRAND JUNCTION MOCLDY    33  28  81 E6        30.34R WCI  28
MONTROSE       CLOUDY    30  25  81 SE6       30.37R WCI  24
EAGLE          CLOUDY    30  28  93 CALM      30.40S
RIFLE          MOCLDY    32  26  78 CALM      30.37R
DELTA          NOT AVBL
NUCLA          CLOUDY    32  27  80 E3        30.37S
$$

COZ017>023-064>068-291100-
...SOUTHWEST COLORADO...

CITY           SKY/WX    TMP DP  RH WIND       PRES   REMARKS
DURANGO        CLOUDY    31  27  85 NE3       30.32S
CORTEZ         CLEAR     31  27  85 NE3       30.32R
PAGOSA SPRINGS CLOUDY    31  28  89 CALM      30.34S
TELLURIDE      CLOUDY    29  21  71 CALM      30.37R
WOLF CREEK PAS NOT AVBL
$$

COZ009-010-012-014-032>034-037-058>063-291100-
...CENTRAL COLORADO...

CITY           SKY/WX    TMP DP  RH WIND       PRES   REMARKS
ASPEN          MOCLDY    28  19  69 S6        30.36R WCI  22
BUENA VISTA    MOCLDY    28  18  65 CALM      30.37R
COPPER MTN     CLOUDY    23  16  74 CALM      30.40S
BERTHOUD PASS  CLOUDY    14  10  85 W9        30.41R WCI   2
COTTONWOOD PAS MOCLDY    32  18  55 CALM      30.38R
GUNNISON       CLOUDY    12  10  92 CALM      30.41S
KREMMLING      CLOUDY    30  27  86 CALM      30.39S
LEADVILLE      CLOUDY    20  13  74 CALM      30.37S
MONARCH PASS   CLOUDY    21  14  73 MISG      30.50R
SALIDA         MOCLDY    29  20  70 SW5       30.45S WCI  23
SUNLIGHT       MOCLDY    25  23  93 CALM        N/A
WILKERSON PASS CLOUDY    21  16  79 CALM      30.40F
$$

COZ069>075-291100-
...SAN LUIS VALLEY/SANGRE DE CRISTO MOUNTAINS...

CITY           SKY/WX    TMP DP  RH WIND       PRES   REMARKS
ALAMOSA        CLOUDY    23  17  78 SW5       30.34S WCI  17
LA VETA PASS   NOT AVBL
SAGUACHE       CLOUDY    30  23  74 NW10      30.35R WCI  21
$$

COZ035-036-038>040-291100-
...NORTHERN COLORADO FRONT RANGE...

CITY           SKY/WX    TMP DP  RH WIND       PRES   REMARKS
DENVER INTL AP CLOUDY    37  30  75 NW7       30.40S
DMNS CITY PARK   N/A     39  28  63 NW5       30.41S
AURORA         CLOUDY    36  30  81 NW5       30.41R
FRONT RANGE AP NOT AVBL
ERIE MUNI ARPT CLOUDY    39  30  71 CALM      30.41S
BOULDER MUN AP CLOUDY    39  28  65 CALM      30.41S
CENTENNIAL     CLOUDY    37  30  75 NW7       30.40R
BROOMFIELD     CLOUDY    37  30  75 NW5       30.41S
FORT COLLINS   CLOUDY    39  25  56 N6        30.43R
LONGMONT       CLOUDY    40  31  71 CALM      30.43S
$$

COZ041-046-047-076>085-087-088-291100-
...PIKES PEAK/PALMER DIVIDE AND SOUTHERN FOOTHILLS...

CITY           SKY/WX    TMP DP  RH WIND       PRES   REMARKS
COLO. SPRINGS  CLOUDY    36  26  67 N12       30.39R
A. F. ACADEMY  CLOUDY    34  24  66 N9        30.38S WCI  27
ELLICOTT       CLOUDY   N/A N/A N/A N12       30.37R
FALCON         CLOUDY    32  25  74 N10       30.39R WCI  24
FORT CARSON    CLOUDY    36  25  64 N8        30.38R
LIMON          MOCLDY    32  25  75 N12       30.37R WCI  23
MONUMENT HILL  CLOUDY    30  28  93 NW6       30.39S WCI  24
TRINIDAD       MOCLDY    32  28  85 NW7       30.40R WCI  26
$$

COZ042>045-048>051-090-091-291100-
...NORTHEAST COLORADO...

CITY           SKY/WX    TMP DP  RH WIND       PRES   REMARKS
GREELEY ARPT   CLOUDY    37  27  65 CALM      30.40R
AKRON          CLOUDY    37  27  67 NW10      30.38R
BURLINGTON     CLEAR     34  27  75 N12       30.34R WCI  25
WRAY           PTCLDY    34  28  79 NW7       30.37R WCI  28
STERLING       CLOUDY    41  30  65 N12       30.36S
HOLYOKE        CLEAR     34  28  80 N16       30.35R WCI  23
FORT MORGAN    CLOUDY    38  27  62 NW8       30.40R
$$

COZ086-089-092>099-291100-
...SOUTHEAST COLORADO...

CITY           SKY/WX    TMP DP  RH WIND       PRES   REMARKS
PUEBLO         CLOUDY    40  28  62 CALM      30.41R
LA JUNTA       CLOUDY    37  30  75 MISG      30.39R
LAMAR          CLOUDY    39  30  70 NW8       30.36R
SPRINGFIELD      N/A     38  31  76 NW17      30.35R
$$


USA.gov is the U.S. government's official web portal to all federal, state and local government web resources and services.